Home   Weather   Bingen am Rhein   Past weeks

Flag for Germany Past Weather in Bingen am Rhein, Rhineland-Palatinate, Germany — Yesterday and Last 2 Weeks

Now
32 °F

Sunny.


Feels Like: 26 °F
Forecast: 19 / 29 °F
Wind: 7 mph from Northeast

Location: Wiesbaden Airport

Current Time: Jan 22, 2017 at 1:43:03 pm

Latest Report: Jan 22, 2017 at 12:58 pm


Visibility: N/A

Pressure: 30.33 "Hg

Humidity: 55%

Dew Point: 18 °F

Location of Bingen am RheinLocation

Past Weather in Bingen am Rhein — Graph

°F

Bingen am Rhein Temperature Yesterday

Maximum temperature yesterday: 38 °F (at 2:58 pm)
Minimum temperature yesterday: 23 °F (at 7:58 am)
Average temperature yesterday: 30 °F

High & Low Weather Summary for the Past Weeks

 TemperatureHumidityPressure
High43 °F (Jan 13, 2:06 am)100% (Jan 7, 10:06 pm)30.69 "Hg (Jan 7, 10:06 pm)
Low17 °F (Jan 22, 8:58 am)20% (Jan 20, 1:58 pm)29.13 "Hg (Jan 13, 2:06 am)
Average32 °F83%30.12 "Hg
* Reported Jan 7 11:58 am — Jan 22 11:58 am, Bingen am Rhein, Weather by CustomWeather, © 2017

Note: Actual official high and low records may vary slightly from our data, if they occured in-between our weather recording intervals... More about our weather records

Advertising

Bingen am Rhein Weather History for the Previous 24 Hours

Scroll right to see more
 ConditionsComfort  
Time TempWeatherWind HumidityBarometerVisibility
11:58 am
Sun, Jan 22
30 °FSunny.9 mph64%30.35 "HgN/A
10:58 am27 °FSunny.No wind69%30.37 "HgN/A
9:58 am21 °FSunny.No wind80%30.37 "HgN/A
8:58 am17 °FSunny.No wind83%30.37 "HgN/A
7:58 am18 °FClear.No wind84%30.36 "HgN/A
6:58 am18 °FClear.3 mph86%30.37 "HgN/A
5:58 am19 °FClear.No wind79%30.38 "HgN/A
4:58 am19 °FClear.No wind79%30.37 "HgN/A
3:58 am18 °FClear.No wind81%30.39 "HgN/A
2:58 am21 °FClear.3 mph80%30.38 "HgN/A
1:58 am21 °FClear.No wind80%30.40 "HgN/A
12:58 am27 °FClear.No wind64%30.40 "HgN/A
11:58 pm
Sat, Jan 21
28 °FClear.No wind59%30.41 "HgN/A
10:58 pm28 °FClear.No wind61%30.40 "HgN/A
9:58 pm29 °FClear.No wind60%30.41 "HgN/A
8:58 pm30 °FClear.3 mph59%30.42 "HgN/A
7:58 pm30 °FClear.No wind59%30.42 "HgN/A
6:58 pm30 °FClear.5 mph63%30.42 "HgN/A
5:58 pm34 °FClear.No wind56%30.41 "HgN/A
4:58 pm36 °FSunny.3 mph51%30.40 "HgN/A
3:58 pm37 °FSunny.9 mph46%30.40 "HgN/A
2:58 pm38 °FSunny.9 mph44%30.40 "HgN/A
1:58 pm37 °FSunny.10 mph44%30.42 "HgN/A
Weather by CustomWeather, © 2017

See weather overviewHow to use our weather pages